www.pogodaiklimat.ru

Погода и климат >> Архив погоды >> Малайзия >> Kuala Lumpur Int Airport


ПОГОДА в Kuala Lumpur Int Airport

  • Прогноз погоды в Kuala Lumpur Int Airport
  • Монитор погоды в Kuala Lumpur Int Airport
  • Климат города

АРХИВ ПОГОДЫ в Kuala Lumpur Int Airport

Время (UTC), дата Ветер
(напр.,м/с)
 
Видим.   Явления Облачность Т
(С)
Тd
(С)
f
(%)
Тe
(С)
Тes
(С)
Комфортность P
(гПа)
Po
(гПа)
Тmin
(С)
Tmax
(С)
R
(мм)
R24
(мм)
S
(см)
09 11.08 Ю 3 12 км мгла 9/1 540 м
[Cu med, cong Ac trans Ci sp]
+32.6 +21.2 51 +40 +43 очень
душно
1007.1 1005.2
12 11.08 Ю 2 10 км мгла 8/1 900 м
[Sc Ac trans Ci fib]
+28.9 +22.7 69 +38 +38 очень
душно
1007.8 1005.9 +33.0
15 11.08 ЮВ 1 10 км мгла 9/1 900 м
[Sc Ac lent Ci sp]
+26.7 +22.8 79 +35 +35 очень
душно
1009.8 1007.9
18 11.08 СВ 1 10 км мгла 8/1 900 м
[Sc Ac lent Ci sp]
+25.8 +22.0 80 +33 +33 очень
душно
1009.6 1007.7
21 11.08 ЮВ 1 10 км мгла 8/1 900 м
[Sc Ac lent Ci sp]
+25.1 +22.1 83 +32 +32 очень
душно
1008.8 1006.9
00 12.08 Ю 1 10 км мгла 8/1 540 м
[Cu hum Ac lent Ci sp]
+25.1 +22.2 84 +33 +33 очень
душно
1009.6 1007.7 +24.4
03 12.08 Ю 2 10 км мгла 9/1 540 м
[Cu hum Ac lent Ci sp]
+31.0 +23.2 63 +41 +49 опасность
перегрева
1010.7 1008.8
06 12.08 ЮЗ 4 10 км мгла 8/1 540 м
[Cu med, cong Ac lent Ci sp]
+33.2 +19.5 45 +39 +46 очень
душно
1009.0 1007.1
09 12.08 Ю 3 10 км мгла 9/1 540 м
[Cu hum Ac trans Ci sp]
+32.7 +21.2 51 +40 +43 очень
душно
1007.0 1005.1
12 12.08 штиль 0 10 км мгла 9/1 900 м
[Sc Ac lent Ci sp]
+29.9 +22.5 65 +39 +39 очень
душно
1007.7 1005.8 +34.4
15 12.08 Ю 1 10 км мгла 9/1 900 м
[Sc diur, vesp Ac lent Ci sp]
+27.5 +23.2 77 +37 +37 очень
душно
1009.9 1008.0
18 12.08 ЮВ 1 10 км мгла 9/1 900 м
[Sc diur, vesp Ac lent Ci sp]
+26.0 +22.9 83 +35 +35 очень
душно
1009.6 1007.7
21 12.08 ЮВ 1 8000 м мгла 9/1 900 м
[Sc Ac trans Ci fib]
+25.2 +23.3 89 +34 +34 очень
душно
1008.8 1006.9
00 13.08 ЮВ 1 10 км мгла 8/1 540 м
[Cu hum Ac trans Ci fib]
+25.6 +23.1 86 +34 +35 очень
душно
1010.1 1008.2 +24.3
03 13.08 Ю 3 12 км мгла 8/1 540 м
[Cu med, cong Ac trans Ci fib]
+30.9 +20.8 55 +38 +45 очень
душно
1011.0 1009.1
06 13.08 ЮЗ 4 12 км мгла 8/1 540 м
[Cu hum Ac trans Ci fib]
+33.2 +19.7 45 +39 +47 очень
душно
1009.1 1007.2
09 13.08 Ю 3 12 км мгла 9/1 540 м
[Cu med, cong Ac trans Ci fib]
+33.5 +19.9 45 +40 +43 очень
душно
1007.1 1005.2
12 13.08 Ю 2 10 км мгла 9/1 900 м
[Sc Ac trans Ci sp]
+29.8 +22.9 67 +40 +40 очень
душно
1007.8 1005.9 +34.2
15 13.08 Ю 2 10 км мгла 9/1 900 м
[Sc Ac lent Ci sp]
+27.9 +23.1 75 +37 +37 очень
душно
1010.0 1008.1
18 13.08 ЮВ 2 10 км мгла 9/1 900 м
[Sc Ac lent Ci sp]
+26.4 +23.6 85 +36 +36 очень
душно
1009.9 1008.0
21 13.08 штиль 0 6000 м мгла 9/1 900 м
[Sc Ac lent Ci sp]
+26.2 +24.2 89 +36 +36 очень
душно
1009.0 1007.1
00 14.08 ЮВ 1 6000 м мгла 9/1 540 м
[Cu Sc Ac lent Ci sp]
+25.6 +23.6 89 +35 +35 очень
душно
1009.6 1007.7 +25.2
03 14.08 Ю 5 10 км мгла 9/1 540 м
[Cu hum Ac lent Ci sp]
+31.6 +21.3 54 +39 +44 очень
душно
1010.7 1008.8
06 14.08 Ю 4 10 км мгла 9/3 600 м
[Cu hum Ac trans Ci fib]
+32.3 +24.2 62 +44 +50 опасность
перегрева
1008.5 1006.6
09 14.08 Ю 4 10 км мгла 9/1 540 м
[Cu hum Ac lent Ci sp]
+32.7 +23.2 57 +43 +45 опасность
перегрева
1006.6 1004.7
12 14.08 ЮВ 2 10 км мгла 9/1 900 м
[Sc Ac lent Ci sp]
+30.4 +22.5 63 +40 +40 очень
душно
1007.4 1005.5 +33.2
15 14.08 ЮВ 2 10 км мгла 9/1 900 м
[Sc Ac trans Ci fib]
+28.6 +23.7 75 +39 +39 очень
душно
1009.8 1007.9
18 14.08 З 1 7000 м гроза без осадков 9/3 500 м
[Cb cap Ac lent Ci sp]
+27.1 +24.4 85 +38 +38 очень
душно
1009.7 1007.8
21 14.08 ЮВ 2 10 км зарница {гроза} 9/3 500 м
[Cb cap Ac lent Ci sp]
+25.2 +22.2 83 +33 +33 очень
душно
1009.4 1007.5
00 15.08 ЮВ 1 10 км мгла {гроза} 9/4 500 м
[Cb calv Ac lent Ci sp]
+26.1 +22.9 83 +35 +35 очень
душно
1010.3 1008.4 +25.0
03 15.08 ЮВ 4 9000 м мгла 9/4 540 м
[Cu med, cong Ac lent Ci sp]
+31.1 +25.1 70 +45 +48 опасность
перегрева
1010.8 1008.9
06 15.08 Ю 5 10 км мгла 9/4 540 м
[Cu med, cong Ac lent Ci sp]
+33.2 +25.1 63 +47 +51 опасность
перегрева
1008.9 1007.1
09 15.08 Ю 4 10 км мгла 9/3 540 м
[Cu med, cong Ac lent Ci sp]
+32.1 +24.0 62 +44 +45 опасность
перегрева
1007.1 1005.2
12 15.08 ЮВ 2 8000 м мгла 9/1 900 м
[Sc Ac lent Ci sp]
+29.2 +24.8 77 +42 +42 опасность
перегрева
1007.6 1005.7 +33.2
15 15.08 В 2 7000 м мгла 9/1 900 м
[Sc Ac trans Ci sp]
+28.2 +24.3 79 +39 +39 очень
душно
1009.2 1007.3
18 15.08 СВ 1 7000 м мгла 9/1 900 м
[Sc Ac trans Ci sp]
+27.0 +24.0 84 +37 +37 очень
душно
1008.8 1006.9
21 15.08 В 2 7000 м мгла 9/1 900 м
[Sc Ac lent Ci sp]
+26.9 +23.7 83 +37 +37 очень
душно
1008.1 1006.2
00 16.08 ЮВ 1 9000 м мгла 9/3 500 м
[Cb cap Ac lent Ci sp]
+27.1 +24.2 84 +38 +38 очень
душно
1009.4 1007.5 +26.1
03 16.08 Ю 3 10 км мгла {гроза} 9/3 500 м
[Cb cap Ac lent Ci sp]
+31.7 +24.7 67 +45 +50 опасность
перегрева
1009.8 1007.9
06 16.08 Ю 4 10 км мгла 9/4 540 м
[Cu hum Ac lent Ci sp]
+33.2 +25.0 62 +47 +52 опасность
перегрева
1007.5 1005.7
09 16.08 ЮЗ 3 10 км мгла 9/3 500 м
[Cb cap Ac lent Ci sp]
+32.5 +24.0 61 +44 +47 опасность
перегрева
1005.8 1003.9
12 16.08 ЮЗ 1 7000 м мгла 9/1 900 м
[Sc Ac lent Ci sp]
+29.1 +26.1 84 +44 +44 опасность
перегрева
1006.6 1004.8 +29.9
15 16.08 штиль 0 6000 м мгла 9/3 900 м
[Sc Ac lent Ci sp]
+28.6 +25.7 84 +42 +42 опасность
перегрева
1008.2 1006.3
18 16.08 СВ 1 8000 м мгла 9/1 900 м
[Sc Ac lent Ci sp]
+28.2 +24.8 82 +40 +40 очень
душно
1007.7 1005.8
21 16.08 С 1 8000 м мгла 9/1 900 м
[Sc Ac lent Ci sp]
+27.1 +24.8 87 +39 +39 очень
душно
1006.7 1004.8
00 17.08 ЮВ 2 2500 м мгла 9/1 500 м
[Cb cap Ac lent Ci sp]
+26.4 +24.9 91 +38 +38 очень
душно
1008.5 1006.6 +25.8
03 17.08 ЮВ 2 6000 м мгла {туман} 9/3 540 м
[Cu med, cong Ac lent Ci sp]
+30.4 +24.4 70 +42 +48 опасность
перегрева
1008.7 1006.8
06 17.08 Ю 4 3000 м мгла 9/4 500 м
[Cb cap Ac lent Ci sp]
+31.8 +24.9 67 +45 +51 опасность
перегрева
1006.5 1004.7
09 17.08 Ю 2 7000 м мгла {туман} 9/4 500 м
[Cb calv Ac lent Ci sp]
+31.7 +24.2 65 +44 +47 опасность
перегрева
1004.6 1002.8
12 17.08 ЮВ 3 10 км мгла 9/1 900 м
[Sc Ac lent Ci sp]
+29.1 +24.4 76 +41 +41 опасность
перегрева
1006.0 1004.1 +32.1
15 17.08 ЮВ 2 10 км мгла 9/1 900 м
[Sc Ac lent Ci sp]
+28.0 +23.7 77 +38 +38 очень
душно
1007.4 1005.5
18 17.08 ЮВ 2 10 км мгла 9/1 900 м
[Sc Ac lent Ci sp]
+27.2 +24.3 84 +38 +38 очень
душно
1007.5 1005.6
21 17.08 ЮВ 1 6000 м мгла 9/1 900 м
[Sc Ac lent Ci sp]
+26.8 +25.0 90 +39 +39 очень
душно
1007.3 1005.4
00 18.08 В 4 5000 м мгла 9/1 900 м
[Sc Ac lent Ci sp]
+27.9 +25.3 86 +41 +41 опасность
перегрева
1008.4 1006.5 +26.5
03 18.08 ЮВ 5 10 км мгла 9/4 500 м
[Cb cap Ac lent Ci sp]
+30.9 +25.3 72 +45 +48 опасность
перегрева
1008.7 1006.8

 

Местоположение метеостанции Kuala Lumpur Int Airport (Малайзия): широта 2.72 долгота 101.70 высота над уровнем моря 17 м.

В архиве по умолчанию представлена погода в Kuala Lumpur Int Airport за последнюю неделю. Архивные данные за месяц целиком и за предыдущие месяцы, начиная с января 2011 года, Вы можете получить, выбрав интересующий диапазон дат из раскрывающегося списка и нажав кнопку "Ввод!".


*Определитесь, кто Вы:
робот инопланетянин человек

Внимание! Время в таблицах - всемирное. Для получения местного времени необходимо прибавить поправку, которая в Kuala Lumpur Int Airport равна 7 ч.

Смотрите также архив погоды в соседних городах и на ближайших метеорологических станциях:

Погода в Kuala Lumpur (Малайзия) (48 км)
Погода в Malacca (Малайзия) (79 км)
Погода в Cameron Highlands (Малайзия) (198 км)
Погода в Sitiawan (Малайзия) (200 км)
Погода в Kuantan (Малайзия) (205 км)
Погода в Ipoh (Малайзия) (216 км)
Погода в Johore Bharu / Senai (Малайзия) (250 км)
Погода в Pekanbaru (Индонезия) (252 км)
Погода в Singapore (Сингапур) (295 км)
Погода в Batam Hang Nadim Airport (Индонезия) (322 км)

Пояснения к столбцам:

Ветер - указаны скорость ветра в м/с - средняя за 10 мин, порывы в срок и между сроками (в фигурных скобках) и направление, откуда дует ветер: С - северный, СВ - северо-восточный, В - восточный, ЮВ - юго-восточный, Ю - южный, ЮЗ - юго-западный, З - западный, СЗ - северо-западный.
Видимость - горизонтальная дальность видимости в метрах или километрах. При видимости от 1 до 10 км при отсутствии осадков обычно наблюдается дымка, при ухудшении видимости до 1 км и менее - туман. В сухую погоду видимость может ухудшаться дымом, пылью или мглою.
Явления - указаны атмосферные явления, наблюдавшиеся в срок или в последний час перед сроком; фигурными скобками обозначены явления, наблюдавшиеся между сроками (за 1-3 часа до срока); квадратными скобками обозначены град или гололедные отложения с указанием их диаметра в мм.
Облачность - указаны через наклонную черту общая и нижняя облачность в баллах и высота нижней границы облаков в метрах; квадратными скобками обозначены формы облаков: Ci - перистые, Cs - перисто-слоистые, Cc - перисто-кучевые, Ac - высококучевые, As - высокослоистые, Sc - слоисто-кучевые, Ns - слоисто-дождевые, Cu - кучевые, Cb - кучево-дождевые. Подробнее классификацию облаков см. в Атласе облаков (PDF).
T - Температура воздуха - температура, измеренная на высоте 2 м над землей.
Td - Температура точки росы - температура, при понижении до которой содержащийся в воздухе водяной пар достигнет насыщения.
f - Относительная влажность воздуха - влажноcть воздуха, измеренная на высоте 2 м над землей.
Te - Эффективная температура - температура, которую ощущает одетый по сезону человек в тени. Характеристика душности погоды. При расчете учитывается влияние влажности воздуха и скорости ветра на теплоощущения человека.
Tes - Эффективная температура на солнце - температура, которую ощущает человек, с поправкой на солнечный нагрев. Характеристика знойности погоды. Зависит от высоты солнца над горизонтом, облачности и скорости ветра. Ночью, в пасмурную погоду, а также при ветре 12 м/с и более поправка равна нулю.
P - Атмосферное давление - приведенное к уровню моря атмосферное давление.
Po - Атмосферное давление - измеренное на уровне метеостанции атмосферное давление.
Tmin - Минимальная температура - минимум температуры воздуха на высоте 2 м над землей.
Tmax - Максимальная температура - максимум температуры воздуха на высоте 2 м над землей.
R - Количество осадков - Количество выпавших осадков за период времени, мм. При наведении курсора мыши на число - период времени, за который выпало указанное количество осадков.
R24 - Количество осадков - Количество выпавших осадков за 24 часа, мм.
S - Снежный покров - Высота снежного покрова, см. При наведении курсора мыши на число - состояние снежного покрова и степень покрытия местности в баллах.